Weather History for Green Bay, WI

Change the Weather History Date:

Saturday, July 13, 2013

  Actual Average Record
Temperature  
Mean Temperature 73 °F 69 °F  
Max Temperature 85 °F 80 °F 104 °F (1936)
Min Temperature 61 °F 59 °F 47 °F (1950)
Degree Days  
Heating Degree Days 0 1  
Month to date heating degree days 1 13  
Since 1 June heating degree days 73 105  
Since 1 July heating degree days 1 13  
Cooling Degree Days 8 5  
Month to date cooling degree days 86 65  
Year to date cooling degree days 229 166  
Since 1 June cooling degree days 191 148  
Growing Degree Days 22 (Base 50)    
Moisture  
Dew Point 58 °F    
Average Humidity 61    
Maximum Humidity 78    
Minimum Humidity 43    
Precipitation  
Precipitation 0.00 in 0.11 in 1.08 in (1963)
Month to date precipitation 1.35 1.52  
Year to date precipitation 18.94 15.05  
Snow  
Snow 0.00 in 0.00 in 0.00 in ()
Month to date snowfall 0.0 0.0  
Since 1 June snowfall 0.0 0.0  
Since 1 July snowfall 0.0 0.0  
Snow Depth 0.00 in    
Sea Level Pressure  
Sea Level Pressure 30.14 in    
Wind  
Wind Speed 7 mph (South)    
Max Wind Speed 17 mph    
Max Gust Speed 21 mph    
Visibility 10 miles    
Events      
T = Trace of Precipitation, MM = Missing Value Source: NWS Daily Summary

Daily Weather History Graph

Daily Weather History Graph

Search for Another Location

Airport:

Trip Planner

Search our weather history database for the weather conditions in past years. The results will help you decide how hot, cold, wet, or windy it might be!

Date:

Astronomy

Jul. 13, 2013 Rise Set
Actual Time 5:20 AM CDT 8:35 PM CDT
Civil Twilight 4:44 AM CDT 9:11 PM CDT
Nautical Twilight 3:58 AM CDT 9:57 PM CDT
Astronomical Twilight 3:01 AM CDT 10:53 PM CDT
Moon 10:51 AM CDT (7/13) 11:00 PM CDT (7/13)
Length of Visible Light 16h 26m
Length of Day
15h 15m
Waxing Crescent, 26% of the Moon is Illuminated
Jul 13
Waxing Crescent
Jul 15
First Quarter
Jul 22
Full
Jul 29
Last Quarter
Aug 6
New

Hourly Weather History & Observations

Time (CDT) Temp. Heat Index Dew Point Humidity Pressure Visibility Wind Dir Wind Speed Gust Speed Precip Events Conditions
12:53 AM 64.0 °F - 55.9 °F 75% 30.09 in 10.0 mi SW 3.5 mph - N/A   Clear
1:53 AM 63.0 °F - 55.0 °F 75% 30.11 in 10.0 mi South 3.5 mph - N/A   Clear
2:53 AM 63.0 °F - 54.0 °F 72% 30.12 in 10.0 mi South 4.6 mph - N/A   Clear
3:53 AM 63.0 °F - 54.0 °F 72% 30.11 in 10.0 mi South 8.1 mph - N/A   Clear
4:53 AM 63.0 °F - 53.1 °F 70% 30.11 in 10.0 mi South 9.2 mph - N/A   Clear
5:53 AM 62.1 °F - 54.0 °F 75% 30.11 in 10.0 mi South 9.2 mph - N/A   Clear
6:53 AM 66.0 °F - 55.0 °F 68% 30.14 in 10.0 mi South 9.2 mph - N/A   Clear
7:53 AM 70.0 °F - 57.9 °F 65% 30.14 in 10.0 mi South 8.1 mph - N/A   Clear
8:53 AM 73.0 °F - 61.0 °F 66% 30.16 in 10.0 mi SSW 6.9 mph - N/A   Clear
9:53 AM 77.0 °F - 62.1 °F 60% 30.16 in 10.0 mi SW 9.2 mph - N/A   Clear
10:53 AM 79.0 °F - 62.1 °F 56% 30.17 in 10.0 mi SW 9.2 mph - N/A   Clear
11:53 AM 81.0 °F 81.6 °F 60.1 °F 49% 30.16 in 10.0 mi SW 5.8 mph - N/A   Clear
12:53 PM 82.0 °F 82.4 °F 60.1 °F 47% 30.15 in 10.0 mi SSW 8.1 mph - N/A   Clear
1:53 PM 82.9 °F 82.6 °F 57.9 °F 42% 30.14 in 10.0 mi South 11.5 mph - N/A   Clear
2:53 PM 82.9 °F 82.8 °F 59.0 °F 44% 30.15 in 10.0 mi SSW 9.2 mph - N/A   Clear
3:53 PM 84.0 °F 84.5 °F 62.1 °F 47% 30.13 in 10.0 mi SSW 8.1 mph - N/A   Clear
4:53 PM 82.0 °F 83.1 °F 63.0 °F 52% 30.13 in 6.0 mi SE 11.5 mph - N/A   Haze
5:53 PM 82.0 °F 83.0 °F 62.1 °F 51% 30.13 in 10.0 mi SE 15.0 mph - N/A   Clear
6:18 PM 82.0 °F 82.7 °F 61.0 °F 49% 30.14 in 1.8 mi SE 16.1 mph - N/A   Haze
6:26 PM 81.0 °F 81.7 °F 61.0 °F 50% 30.14 in 10.0 mi SSE 13.8 mph - N/A   Clear
6:53 PM 81.0 °F 81.6 °F 60.1 °F 49% 30.14 in 10.0 mi SSE 12.7 mph - N/A   Clear
7:53 PM 78.1 °F - 57.9 °F 50% 30.14 in 10.0 mi SSE 9.2 mph - N/A   Clear
8:53 PM 72.0 °F - 57.9 °F 61% 30.15 in 10.0 mi SE 6.9 mph - N/A   Clear
9:53 PM 69.1 °F - 55.9 °F 63% 30.16 in 10.0 mi SE 3.5 mph - N/A   Clear
10:53 PM 69.1 °F - 55.0 °F 61% 30.15 in 10.0 mi Calm Calm - N/A   Clear
11:53 PM 68.0 °F - 54.0 °F 61% 30.17 in 10.0 mi Calm Calm - N/A   Clear